Погода в Пинске

Погода в Пинске : погода сейчас, прогноз погоды и архив. Всё, что Вы хотите узнать о погоде в Пинске!

Хотите узнать прогноз погоды в Пинске? Тогда Вам сюда: Погода в Пинске

Поиск расширенной информации на нашем сайте:

Другие новости

Новости СМИ2

Главная страница сайта

Новости сайта

02.10.2013

Напоминаем, что на нашем новом сайте вы можете получить высокодетализированные прогнозы погоды по пунктам России, СНГ и мира (включающие важные для авиации метеовеличины, такие как направление и скорость ветра, видимость, явления погоды, количество и форма облачности, нижняя и верхняя граница облачности), а также ознакомиться с разнообразными материалами по авиационной метеорологии и подборкой полезных ссылок на эту тему.

Сайт Метеоцентр.Азия посвящён разработке технологий оптимизации авиаметеорологического обслуживания, включая проектирование и перспективное создание нескольких автоматизированных авиаметеорологических систем:
- система выпуска высокодетальных прогностических карт явлений погоды для нижнего воздушного пространства по России и ближнему зарубежью;
- система верификации прогнозов TAF (выпускаемых синоптиками официальных АМСГ РФ и ближнего зарубежья) и AUTOTAF (выпускаемых сайтом Метеоцентр.Азия) - выявление ошибок, онлайн-сопоставление с фактической погодой METAR, автоматическое внесение коррективов в прогнозы при резком отклонении фактической погоды от прогноза, подсчёт оправдываемости прогнозов по элементам и в целом;
- система обработки, анализа и отображения авиаметеорологической информации для применения провайдерами метеорологической информации.


Погода в Пинске - сегодня

Время (UTC), дата Ветер
(°,м/с) 
Видим.   Явления Облачность Т
(°С)
Тd
(°С)
f(%) Тe
(°С)
Pmin
(гПа)
dP
(гПа)
Po
(мм)
O2
(г/м3)
Тmin Tmax R s Состояние
почвы
03 22.05.17 010 (С) 10 км    6/0 верхняя 
[Ci fib]
+7.9 +5.3 84 +9  1017.2  0.7  750  293           
06 22.05.17 050 (СВ) 20000 м    4/0 верхняя 
[Ci fib]
+17.1 +4.6 44 +19  1017.9  1.2  751  284  +7.8         
09 22.05.17 100 (В) 30000 м    3/0 верхняя 
[Ci fib]
+20.4 +5.5 38 +20  1017.4  -0.2  751  281           
12 22.05.17 330 (СЗ) 30000 м    4/0 средняя, верхняя 
[Ac trans|Ci fib]
+22.5 +6.5 36 +23  1016.1  -1.2  750  278           
15 22.05.17 340 (С) 20000 м    10/4 600 м средняя, верхняя 
[Sc|Ac trans|Ci fib]
+22.2 +7.7 39 +22  1015.5  -0.6  749  278           
18 22.05.17 300 (СЗ) 10 км    8/5 1000 м средняя 
[Sc|Ac trans]
+19.9 +9.3 50 +21  1015.4  -0.2  749  280    +24.1       
21 22.05.17 290 (З) 10 км    4/0 средняя 
[Ac trans]
+15.4 +11.1 76 +20  1015.8  0.1  749  284           
00 23.05.17 тихо ()   10 км    ясно 
+14.4 +11.1 81 +17  1015.7  -0.2  749  285           
03 23.05.17 280 (З) 10 км    6/3 1000 м средняя 
[Sc|Ac trans]
+13.2 +11.1 87 +17  1016.1  0.3  749  286           
06 23.05.17 тихо ()   20000 м    3/0 верхняя 
[Ci fib]
+19.4 +11.9 62 +23  1015.8  0.1  749  280  +13.2         
09 23.05.17 310 (СЗ) 15000 м    10/8 1000 м верхняя 
[Cu hum|Ci fib]
+21.7 +7.4 40 +22  1015.5  -0.1  749  278           
12 23.05.17 260 (З) 20000 м    10/3 1000 м верхняя 
[Cu hum|Ci fib]
+23.8 +8.1 37 +24  1014.2  -1.2  748  276           
15 23.05.17 330 (СЗ) 20000 м    8/0 средняя, верхняя 
[Ac trans|Ci fib]
+23.6 +9.1 40 +24  1013.3  -0.9  748  276           
18 23.05.17 280 (З) 10 км    10/10 600 м кучево-дожд. 
[Cb calv]
+19.1 +9.8 55 +21  1014.2  0.6  748  280    +25       
21 23.05.17 250 (З) 10 км  в посл. час ливневой дождь  9/9 600 м 
[Sc]
+15.4 +12.8 84 +21  1013.9  -0.5  748  283      0.1     
00 24.05.17 220 (ЮЗ) 8000 м  дымка{ливн. осадки}  9/9 600 м 
[Sc]
+14.4 +12.9 91 +21  1013.2  -0.7  747  283           
03 24.05.17 280 (З) 3800 м  слаб. ливневой дождь  10/10 600 м кучево-дожд. 
[Cb calv]
+14.3 +13.7 96 +23  1013  -0.3  747  283         
06 24.05.17 010 (С) 10 км  {ливн. осадки}  10/6 1000 м средняя 
[Sc|Ac trans]
+16.1 +12.2 78 +21  1013.1  0.3  747  282  +14       
09 24.05.17 230 (ЮЗ) 10 км    9/4 1000 м средняя, верхняя 
[Sc|Ac trans|Ci fib]
+18.1 +13.6 75 +25  1013.2  0.2  747  280           
12 24.05.17 210 (ЮЗ) 15000 м    8/0 средняя, верхняя 
[Ac trans|Ci fib]
+19.6 +13.4 67 +26  1012  -1.1  747  278           
15 24.05.17 210 (ЮЗ) 10 км    8/0 средняя, верхняя 
[Ac trans|Ci fib]
+20.4 +11.6 57 +24  1010.9  -1  746  277           
18 24.05.17 110 (В) 10 км    9/9 600 м 
[Sc]
+18.2 +12.6 70 +25  1011.1  746  279    +21.2       
21 24.05.17 тихо ()   10 км    9/9 600 м 
[Sc]
+15.8 +13.8 88 +23  1011.6  0.4  746  281           
00 25.05.17 300 (СЗ) 10 км    9/9 600 м 
[Sc]
+15 +11.9 82 +20  1011.8  0.1  746  283           
03 25.05.17 310 (СЗ) 8000 м  дымка{ливн. осадки}  10/10 600 м 
[Sc]
+13.6 +12.7 94 +20  1011.8  -0.1  746  284      0.1     
Время (UTC), дата Ветер
(°,м/с) 
Видим.   Явления Облачность Т
(°С)
Тd
(°С)
f(%) Тe
(°С)
Pmin
(гПа)
dP
(гПа)
Po
(мм)
O2
(г/м3)
Тmin Tmax R s Состояние
почвы

Для получения пояснительной информации подведите курсор к названию столбца.

ПОГОДА в Пинске - архив

Всё, что Вы хотите узнать о погоде в Пинске - удобно и подробно!

Выберите нужную дату (начиная с 1 января 2015* года) и нажмите кнопку "Найти".
Будут отображены архивные сводки погоды по пункту Пинск, начиная с указанной даты.


Отображать данные в формате CSV (для использования в таблицах Excel)


Внимание! Наш архив погоды предназначен исключительно для личного некоммерческого использования в познавательных целях. Если Вам необходимы официальные справки о состоянии погоды (для производственных, юридических, коммерческих и т.п. целей), обращайтесь в органы Росгидромета.

*Примечание: данная дата относится к архиву по метеостанциям СССР (Россия, СНГ, Балтия).
Архив по метеостанциям Зарубежной Европы и Азии (кроме Китая) хранится 10 дней, по другим регионам земного шара (Китай, Африка, Америка, Австралия, Океания) - 1 день.

Пинск - район местоположения метеостанции


Название, широта, долгота, высота метеостанции:
Пинск 52.1°ш. 26.1°д. 142 м над ур. моря [Беларусь]

Дополнительная информация

В oтличие oт бoльшинства пoгoдных сайтoв мы публикуем пoдрoбную метеoинфoрмацию в детальнoм прoфессиoнальнoм фoрмате.

Характеристики температуры и влажнoсти вoздуха измеряются на высoте 2 м в тени вдали oт зданий и деревьев.
Скoрoсть ветра измеряется на высoте 10 м (на урoвне рoста челoвека скoрoсть ветра ниже в 1.5-2 раза). Если метеoстанция нахoдится в гoрoде или в лесу, тo скoрoсть ветра занижена на 2-4 м/с пo сравнению с oткрытым местoм. Скoрoсть ветра над акватoриями крупных рек и oзёр, а также на вершинах хoлмoв на 2-5 м/с выше, чем в oбычных услoвиях.
Атмoсфернoе давление в разных тoчках местнoсти мoжет значительнo oтличаться oт давления на метеoстанции, в зависимoсти oт услoвий рельефа (при пoдъёме на 10 м давление пoнижается примернo на 1 мм рт.ст.).